User: anonymous
Location: Unspecified
(0.0000°N, 0.0000°E)
Time: 20:17:53
(UTC+02:00)
Language:

Iridium 33 - Orbit

View from above orbital plane
View from above orbital plane
View from above satellite
View from above satellite

Ground track
Ground track

The orbit data is extracted from the following two-line orbital elements,

1 24946U 97051C   14273.35849507  .00000350  00000-0  12038-3 0  1048
2 24946 086.3910 341.3523 0006998 215.1895 191.8762 14.33192366892100
Epoch (UTC): 30 September 2014 08:36:13
Eccentricity: 0.0006998
inclination: 86.3910°
perigee height: 776 km
apogee height: 786 km
right ascension of ascending node: 341.3523°
argument of perigee: 215.1895°
revolutions per day: 14.33192366
mean anomaly at epoch: 191.8762°
orbit number at epoch: 89210

The dashed part of the orbit path shows where the satellite is in the earth's shadow,  

DLR